Other Public Products
Issued by NWS Charleston, SC

Current Version | Previous Version | Text Only | Print | Product List | Glossary Off
Versions: 1 2 3 4 5 6 7 8 9 10 11 12 13 14 15 16 17 18 19 20 21 22 23 24 25 26 27 28 29 30 31 32 33 34 35 36 37 38 39 40 41 42 43 44 45 46 47 48 49 50
000 FPUS82 KCHS 280412 OPUCHS TEST...KCHS/KSAV Gateway Observations...TEST National Weather Service Charleston SC 1200 AM EDT FRI JUL 28 2017 NOTE: "fair" indicates few or no clouds below 12,000 feet with no significant weather and/or obstructions to visibility. SCZ050-WAZ558-NCZ071-TXZ119-213-PAZ071-DCZ001-FLZ074-172-MI076- NYZ176-178-MAZ016-IL014-TNZ027-NJZ106-GAZ044-MD014-280500- ...Gateway Observations for Charleston International... CITY SKY/WX TMP DP RH WIND PRES REMARKS Chas Airport CLOUDY 78 75 90 S3 29.95F Seattle PTCLDY 64 55 72 NW5 30.10S Charlotte CLOUDY 78 74 87 W5 29.95F Dallas DFW MOCLDY 88 68 51 SE6 29.90R HX 91 Dallas Love MOCLDY 91 67 44 S12 29.91R HX 94 Philladelphia MOCLDY 75 70 84 E3 29.87S Wash National MOCLDY 80 76 87 S7 29.85S Baltimore MOCLDY 76 70 82 CALM 29.85S Miami MOCLDY 85 75 72 SE6 30.00F HX 93 Detroit CLOUDY 71 59 65 NE10 29.94S Newark CLOUDY 75 69 81 SW6 29.87S Laguardia MOCLDY 76 71 85 SW8 29.86F J F K CLOUDY 73 72 94 SW7 29.88F Boston Logan PTCLDY 67 65 93 SW13 29.85F Ft. Lauderdale PTCLDY 85 77 77 SE7 29.99S HX 95 Chicago O`Hare PTCLDY 70 59 68 N10 29.94S Chicago Midway PTCLDY 72 62 71 N9 29.93S Houston Bush CLEAR 84 74 71 S7 29.95S HX 91 Houston Hobby PTCLDY 84 74 71 S8 29.95S HX 91 Nashville CLOUDY 81 71 71 NW3 29.92S Atlanta MOCLDY 75 72 90 CALM 29.98S $$ GAZ044-118-TXZ119-213-NCZ071-DCZ001-MDZ014-506-PAZ021-071-NJZ106- NYZ176-178-MAZ106-OHZ011-021-055-MIZ076-KYZ091-ILZ014-INZ047- MNZ060-ONZ431-280500- ...Gateway Observations for Savannah International... CITY SKY/WX TMP DP RH WIND PRES REMARKS Savannah Arpt CLOUDY 78 74 87 CALM 29.95F Atlanta MOCLDY 75 72 90 CALM 29.98S Charlotte CLOUDY 78 74 87 W5 29.95F Dallas DFW MOCLDY 88 68 51 SE6 29.90R HX 91 Houston Bush CLEAR 84 74 71 S7 29.95S HX 91 Wash National MOCLDY 80 76 87 S7 29.85S Wash Dulles MOCLDY 74 72 93 CALM 29.86S Baltimore MOCLDY 76 70 82 CALM 29.85S Philadelphia MOCLDY 75 70 84 E3 29.87S Newark CLOUDY 75 69 81 SW6 29.87S Laguardia MOCLDY 76 71 85 SW8 29.86F J F K CLOUDY 73 72 94 SW7 29.88F Boston PTCLDY 67 65 93 SW13 29.85F Pittsburg CLOUDY 71 70 96 CALM 29.90F Akron PTCLDY 71 68 90 W5 29.91S FOG Cleveland PTCLDY 73 67 81 NE5 29.91F Cincinnati CLOUDY 74 74 100 CALM 29.87F Columbus CLOUDY 70 70 100 N7 29.86F Detroit CLOUDY 71 59 65 NE10 29.94S Chicago O`Hare PTCLDY 70 59 68 N10 29.94S Minneapolis PTCLDY 74 59 59 NE5 30.04R Indianapolis CLOUDY 74 72 93 NW5 29.85F Toronto Canada PTCLDY 66 59 77 N14 29.93R $$

USA.gov is the U.S. government's official web portal to all federal, state and local government web resources and services.